[[{"header":{"parameterUnit":"m.s-1","parameterCategory":1,"la1":30.2991,"la2":30.254,"lo1":-89.0895,"lo2":-89.0444,"dy":0.0017,"dx":0.0017,"nx":28,"ny":28,"refTime":"2025-06-03T03:00:00:Z","depth":0,"parameterNumber":2,"parameterNumberName":"U-component_of_WINDS"},"data":[0,0,0,0,0,0,0,0,0,0,0,0,0,0,0,0,0,0,0,0,0,0,0,0,0,0,0,0,0,0,0,0,0,0,0,0,0,0,0,0,0,0,0,0,0,0,0,0,0,0,0,0,0,0,0,0,0,0,-5.9053,-5.9054,0,-5.9132,-5.9133,-5.9134,-5.9092,-5.909,-5.9088,-5.9086,-5.9165,-5.9168,-5.9172,0,0,0,0,0,0,0,0,0,0,0,0,0,-5.8865,-5.8869,-5.9053,-5.9054,-5.9055,-5.9132,-5.9133,-5.9134,-5.9092,-5.909,-5.9087,-5.9085,-5.9163,-5.9168,-5.9173,0,0,0,0,0,0,0,0,0,0,0,0,0,-5.8946,-5.887,-5.9053,-5.9044,-5.9044,-5.9132,-5.9133,-5.9134,-5.9093,-5.909,-5.9087,-5.9084,-5.9162,-5.9167,-5.9174,-5.9275,0,0,-5.9192,-5.9195,0,0,0,0,0,0,0,0,-5.8941,-5.8953,-5.9044,-5.9045,-5.9045,-5.9099,-5.9095,-5.9181,-5.9094,-5.9074,-5.9086,-5.9082,-5.9145,-5.9152,-5.9174,-5.9278,-5.9282,-5.9193,-5.9196,-5.9199,-5.9201,0,0,0,0,0,0,0,-5.8936,-5.8949,-5.9084,-5.9045,-5.9046,-5.9035,-5.9043,-5.9112,-5.9126,-5.9076,-5.9073,-5.9083,-5.9145,-5.9168,-5.9176,-5.9283,-5.9193,-5.9198,-5.9202,-5.9204,-5.9473,-5.9476,0,0,0,0,0,0,-5.8931,-5.8945,-5.9082,-5.9087,-5.8984,-5.9041,-5.905,-5.9085,-5.9126,-5.9129,-5.9085,-5.9081,-5.9159,-5.9169,-5.9178,-5.9298,-5.9199,-5.9205,-5.9208,-5.947,-5.9474,-5.9478,0,0,0,0,0,0,-5.8927,-5.8943,-5.9079,-5.9015,-5.9031,-5.9048,-5.9087,-5.9088,-5.9111,-5.9133,-5.9135,-5.9107,-5.9157,-5.917,-5.9251,-5.93,-5.9207,-5.9213,-5.9466,-5.9471,-5.9476,-5.9538,0,0,0,0,0,0,-5.8922,-5.8942,-5.8981,-5.9016,-5.9035,-5.915,-5.909,-5.9092,-5.9122,-5.9117,-5.9154,-5.9157,-5.9156,-5.9242,-5.9257,-5.9306,-5.9218,-5.9461,-5.9468,-5.9474,-5.9532,-5.9545,-5.9556,0,0,0,0,0,-5.8915,-5.8995,-5.8983,-5.9,-5.9084,-5.9153,-5.9164,-5.9162,-5.9127,-5.9165,-5.9179,-5.9156,-5.9293,-5.9251,-5.9267,-5.9319,-5.9458,-5.9466,-5.9474,-5.9526,-5.9542,-5.9556,0,0,0,0,0,0,-5.8964,-5.8999,-5.8986,-5.908,-5.9114,-5.9146,-5.9194,-5.9179,-5.9223,-5.9215,-5.9211,-5.9219,-5.9303,-5.932,-5.9272,-5.9419,-5.937,-5.9381,-5.9404,-5.942,-5.9432,-5.9424,-5.9223,0,0,0,0,0,-5.8986,-5.904,-5.9068,-5.9148,-5.9166,-5.9178,-5.9208,-5.9204,-5.9238,-5.9252,-5.9272,-5.9306,-5.9356,-5.939,-5.9438,-5.9536,-5.9542,-5.958,-5.9592,-5.9602,-5.9611,-5.9662,-5.9679,-5.9503,-5.9503,-5.9503,0,0,-5.9031,-5.9058,-5.9092,-5.9159,-5.9184,-5.924,-5.919,-5.9251,-5.9291,-5.9261,-5.9338,-5.9355,-5.9392,-5.9482,-5.9522,-5.9498,-5.9661,-5.9612,-5.962,-5.9623,-5.9672,-5.9689,-5.9703,-5.9509,-5.9508,-5.9507,0,0,-5.9141,-5.9168,-5.9237,-5.9264,-5.9304,-5.9311,-5.9328,-5.9363,-5.9373,-5.9451,-5.9429,-5.9478,-5.9566,-5.9593,-5.9618,-5.9741,-5.972,-5.9757,-5.9819,-5.987,-5.9884,-5.9896,-5.9937,-5.9952,-5.9767,-5.9767,-5.9767,0,-5.9192,-5.9275,-5.9274,-5.9336,-5.9366,-5.9343,-5.9412,-5.9439,-5.9492,-5.9513,-5.9486,-5.9595,-5.9619,-5.9714,-5.9744,-5.9767,-5.9784,-5.9751,-5.9882,-5.9894,-5.9905,-5.9945,-5.9961,-5.9771,-5.9771,-5.977,-5.977,0,-5.9334,-5.9392,-5.9443,-5.9496,-5.9532,-5.9597,-5.9606,-5.9642,-5.9636,-5.9646,-5.9726,-5.9754,-5.9807,-5.983,-5.9824,-5.9925,-5.9908,-5.9882,-5.9832,-5.9926,-5.9963,-5.9978,-5.9777,-5.9775,-5.9774,-5.9773,0,0,-5.9474,-5.9527,-5.9545,-5.9568,-5.9612,-5.9656,-5.9721,-5.9774,-5.9804,-5.9843,-5.9896,-5.9972,-5.9948,-5.9977,-5.9975,-6.0019,-6.0112,-5.9987,-5.9988,-6.0007,-6.0223,-6.0239,-6.0257,-6.0101,-6.0104,-6.0106,-6.0218,0,-5.9584,-5.9697,-5.9699,-5.9803,-5.9856,-5.9836,-5.9892,-5.9925,-5.9937,-5.9984,-5.9997,-6.005,-6.0016,-6.0033,-6.0077,-6.0092,-6.0155,-6.0084,-6.0148,-6.015,-6.0135,-6.0277,-6.0295,-6.0399,-6.0233,-6.0236,-6.0237,0,-5.9727,-5.9771,-5.988,-5.9916,-5.9938,-5.9989,-6.0037,-6.0082,-6.0119,-6.0125,-6.0158,-6.0149,-6.0215,-6.0166,-6.0256,-6.0207,-6.0234,-6.0246,-6.025,-6.0253,-6.0197,-6.028,-6.0433,-6.0447,-6.0261,-6.0259,-6.0257,0,-5.9815,-5.9901,-5.9977,-5.9998,-6.0043,-6.0079,-6.0099,-6.0133,-6.0164,-6.0207,-6.0227,-6.0277,-6.0303,-6.0342,-6.0347,-6.0311,-6.0436,-6.0388,-6.0441,-6.0441,-6.0465,-6.0463,-6.062,-6.0489,-6.0488,-6.0488,-6.0488,0,-5.9936,-6.0002,-6.0017,-6.0063,-6.0137,-6.014,-6.0213,-6.023,-6.0261,-6.031,-6.0297,-6.0343,-6.0348,-6.0396,-6.0401,-6.0473,-6.0486,-6.0491,-6.0491,-6.049,-6.0489,-6.0505,-6.0496,-6.0492,-6.0491,-6.049,-6.049,0,-6.0044,-6.0056,-6.0138,-6.0174,-6.0185,-6.0238,-6.0268,-6.0312,-6.0325,-6.0387,-6.0401,-6.042,-6.0476,-6.0485,-6.0551,-6.0554,-6.0639,-6.0634,-6.0627,-6.0625,-6.0676,-6.067,-6.0847,-6.0869,-6.0726,-6.0727,-6.0728,0,-6.0118,-6.0169,-6.0212,-6.0244,-6.0266,-6.0318,-6.035,-6.0356,-6.039,-6.0436,-6.0475,-6.0529,-6.0572,-6.0662,-6.0681,-6.0731,-6.0724,-6.0783,-6.0731,-6.0729,-6.0722,-6.0717,-6.0721,-6.0791,-6.0793,-6.0794,-6.0795,0,-6.0249,-6.0253,-6.03,-6.035,-6.0389,-6.0429,-6.0466,-6.0493,-6.0503,-6.0543,-6.06,-6.0633,-6.0701,-6.0754,-6.0805,-6.0825,-6.0811,-6.0812,-6.0826,-6.0824,-6.0817,-6.0819,-6.065,-6.0807,-6.0806,-6.0805,-6.0804,-6.0804,-6.034,-6.0384,-6.0421,-6.0474,-6.0503,-6.0539,-6.0581,-6.06,-6.0647,-6.0702,-6.0703,-6.0765,-6.0801,-6.0867,-6.0891,-6.094,-6.0921,-6.0942,-6.0947,-6.0951,-6.0955,-6.0813,-6.0949,-6.0949,-6.0949,-6.0948,-6.0948,0,-6.0467,-6.049,-6.054,-6.0592,-6.0634,-6.0621,-6.0662,-6.0697,-6.0752,-6.0787,-6.0831,-6.0896,-6.0949,-6.0973,-6.1024,-6.1058,-6.1053,-6.1071,-6.1067,-6.1072,-6.097,-6.0951,-6.1074,-6.1074,-6.1074,-6.1074,-6.1074,-6.1074,-6.0538,-6.0611,-6.062,-6.0707,-6.073,-6.0791,-6.0815,-6.0848,-6.0876,-6.0949,-6.0993,-6.1009,-6.104,-6.1094,-6.1141,-6.1147,-6.1165,-6.1186,-6.1188,-6.1092,-6.1079,-6.1067,-6.1048,-6.119,-6.1191,-6.1285,-6.1286,-6.1287]},{"header":{"parameterUnit":"m.s-1","parameterCategory":1,"la1":30.2991,"la2":30.254,"lo1":-89.0895,"lo2":-89.0444,"dy":0.0017,"dx":0.0017,"nx":28,"ny":28,"refTime":"2025-06-03T03:00:00:Z","depth":0,"parameterNumber":3,"parameterNumberName":"V-component_of_WINDS"},"data":[0,0,0,0,0,0,0,0,0,0,0,0,0,0,0,0,0,0,0,0,0,0,0,0,0,0,0,0,0,0,0,0,0,0,0,0,0,0,0,0,0,0,0,0,0,0,0,0,0,0,0,0,0,0,0,0,0,0,3.1458,3.1458,0,3.1524,3.1525,3.1525,3.1546,3.1546,3.1546,3.1545,3.1608,3.161,3.1612,0,0,0,0,0,0,0,0,0,0,0,0,0,3.1346,3.1348,3.1458,3.1458,3.1459,3.1524,3.1525,3.1525,3.1546,3.1546,3.1545,3.1545,3.1607,3.161,3.1612,0,0,0,0,0,0,0,0,0,0,0,0,0,3.1402,3.1349,3.1458,3.1478,3.148,3.1523,3.1525,3.1526,3.1546,3.1546,3.1545,3.1545,3.1606,3.1609,3.1612,3.1639,0,0,3.1621,3.1622,0,0,0,0,0,0,0,0,3.1398,3.1406,3.1474,3.1476,3.1479,3.1526,3.1508,3.1563,3.1546,3.1521,3.1545,3.1545,3.1581,3.1586,3.1599,3.1642,3.1645,3.1621,3.1623,3.1624,3.1625,0,0,0,0,0,0,0,3.1395,3.1403,3.1484,3.1475,3.1478,3.1482,3.149,3.1519,3.1552,3.1523,3.1525,3.1533,3.1582,3.1596,3.1601,3.1646,3.1621,3.1624,3.1626,3.1627,3.1716,3.1717,0,0,0,0,0,0,3.1388,3.14,3.1482,3.1486,3.1437,3.1485,3.1493,3.1512,3.1552,3.1558,3.1533,3.1533,3.1591,3.1597,3.1603,3.1638,3.1624,3.1627,3.1629,3.1715,3.1716,3.1717,0,0,0,0,0,0,3.1385,3.1395,3.1479,3.1443,3.1454,3.1487,3.1508,3.1513,3.1527,3.156,3.1565,3.1541,3.1591,3.1599,3.1631,3.1641,3.1628,3.1631,3.1715,3.1716,3.1716,3.1709,0,0,0,0,0,0,3.1382,3.1394,3.1405,3.1443,3.1456,3.1506,3.1508,3.1515,3.1533,3.1534,3.1569,3.1574,3.1591,3.1626,3.1634,3.1645,3.1633,3.1714,3.1715,3.1716,3.1708,3.1709,3.171,0,0,0,0,0,3.1378,3.1399,3.1406,3.1415,3.1471,3.1507,3.1514,3.1535,3.1533,3.1545,3.1566,3.1573,3.1639,3.1629,3.1638,3.165,3.1713,3.1715,3.1716,3.1708,3.1709,3.171,0,0,0,0,0,0,3.1358,3.1404,3.1412,3.1446,3.1473,3.151,3.1525,3.1535,3.1562,3.1561,3.1585,3.1592,3.1623,3.1639,3.1628,3.1679,3.1676,3.1679,3.1667,3.1668,3.1669,3.1665,3.1636,0,0,0,0,0,3.1358,3.1385,3.1423,3.1449,3.1462,3.1492,3.1508,3.1522,3.155,3.1561,3.1584,3.161,3.1637,3.1653,3.1679,3.1711,3.1719,3.1723,3.1724,3.1725,3.1727,3.1747,3.1749,3.1721,3.1721,3.1721,0,0,3.1357,3.1386,3.1401,3.1446,3.1468,3.1495,3.1501,3.1528,3.1548,3.1564,3.1597,3.1615,3.1645,3.1678,3.1693,3.1693,3.1737,3.1727,3.1727,3.1729,3.1748,3.1751,3.1753,3.1722,3.1722,3.1722,0,0,3.137,3.1394,3.1419,3.1443,3.1478,3.1497,3.1503,3.1541,3.1554,3.1588,3.1601,3.1625,3.1669,3.1691,3.1708,3.1732,3.174,3.174,3.1744,3.1763,3.1765,3.1767,3.1777,3.178,3.1742,3.1742,3.1742,0,3.1364,3.1406,3.143,3.1459,3.1478,3.1497,3.1523,3.1544,3.1584,3.1597,3.1597,3.1655,3.1677,3.1715,3.1722,3.1734,3.1742,3.1735,3.1763,3.1766,3.1768,3.1777,3.178,3.1742,3.1742,3.1742,3.1742,0,3.1398,3.1427,3.1443,3.1485,3.1507,3.1533,3.1561,3.1579,3.1592,3.1612,3.1646,3.1673,3.1706,3.1716,3.1728,3.1757,3.1756,3.1759,3.1757,3.177,3.1779,3.1783,3.1741,3.1742,3.1742,3.1742,0,0,3.1398,3.1455,3.1461,3.1481,3.1522,3.1545,3.1572,3.1607,3.1623,3.1651,3.1674,3.1714,3.1718,3.1737,3.1751,3.1768,3.1786,3.1769,3.177,3.1772,3.1821,3.1819,3.1822,3.1792,3.1793,3.1794,3.1819,0,3.1416,3.1468,3.1492,3.1533,3.1561,3.1581,3.1605,3.1632,3.1652,3.1677,3.1698,3.1726,3.1729,3.1741,3.1758,3.178,3.1797,3.1779,3.1814,3.1815,3.1806,3.1827,3.1824,3.1847,3.1823,3.1823,3.1824,0,3.1444,3.1475,3.1519,3.156,3.1572,3.1594,3.1628,3.1653,3.1685,3.1698,3.1721,3.1736,3.1765,3.1762,3.1803,3.179,3.1806,3.182,3.1821,3.1825,3.182,3.1832,3.1854,3.1858,3.1829,3.1829,3.1828,0,3.144,3.1493,3.1527,3.1544,3.1591,3.1606,3.1626,3.1658,3.1678,3.1708,3.1721,3.1753,3.1771,3.1795,3.1818,3.1813,3.1857,3.1855,3.1868,3.1868,3.1876,3.1875,3.1902,3.1886,3.1886,3.1886,3.1886,0,3.1458,3.1485,3.1527,3.1548,3.1578,3.1606,3.1635,3.1656,3.1685,3.171,3.1728,3.1751,3.178,3.1806,3.1824,3.1856,3.1863,3.1874,3.1879,3.1873,3.1872,3.1883,3.1883,3.1887,3.1887,3.1887,3.1887,0,3.1459,3.1488,3.1527,3.157,3.1582,3.1602,3.1639,3.166,3.1681,3.1713,3.1722,3.1755,3.1787,3.1813,3.1854,3.1866,3.19,3.1905,3.189,3.1892,3.1905,3.1903,3.1939,3.1946,3.1926,3.1926,3.1926,0,3.1469,3.149,3.1537,3.1556,3.1577,3.1607,3.1628,3.1656,3.1678,3.1717,3.1733,3.1768,3.1796,3.1847,3.1874,3.1906,3.1912,3.1923,3.1916,3.1911,3.1913,3.1911,3.1914,3.1923,3.1923,3.1923,3.1923,0,3.1483,3.1497,3.1528,3.1565,3.1591,3.162,3.165,3.1664,3.1698,3.1721,3.1755,3.1778,3.1822,3.1856,3.1891,3.1911,3.1922,3.1925,3.193,3.1924,3.1915,3.1921,3.1892,3.1924,3.1924,3.1924,3.1924,3.1924,3.1489,3.151,3.1547,3.1581,3.1607,3.1635,3.1658,3.1684,3.1714,3.1753,3.1767,3.1803,3.1836,3.1885,3.1906,3.1934,3.1934,3.1941,3.1943,3.1944,3.1944,3.1911,3.194,3.194,3.194,3.194,3.194,0,3.1505,3.153,3.1562,3.1605,3.1632,3.1643,3.1678,3.1699,3.1731,3.1762,3.1791,3.1831,3.1865,3.1896,3.193,3.1947,3.1953,3.1955,3.1954,3.1959,3.1941,3.1934,3.1949,3.1949,3.1949,3.1949,3.1949,3.1949,3.1516,3.1553,3.1571,3.1621,3.1646,3.1683,3.1702,3.1728,3.1753,3.1798,3.1827,3.1848,3.1879,3.1916,3.1948,3.1956,3.1968,3.1969,3.1978,3.1961,3.1959,3.1958,3.1952,3.1971,3.1971,3.1993,3.1994,3.1994]}]]